Time,TemperatureF,DewpointF,PressureIn,WindDirection,WindDirectionDegrees,WindSpeedMPH,WindSpeedGustMPH,Humidity,HourlyPrecipIn,Conditions,Clouds,dailyrainin,SoftwareType,DateUTC
2017-03-30 00:14:00,49.7,43.0,29.67,WNW,288,3.0,11.0,77,0.00,,,0.00,weatherlink.com 1.10,2017-03-30 05:14:00,
2017-03-30 00:28:00,49.8,43.0,29.67,WNW,283,6.0,18.0,77,0.00,,,0.00,weatherlink.com 1.10,2017-03-30 05:28:00,
2017-03-30 00:43:00,49.8,43.0,29.67,NW,322,2.0,15.0,76,0.00,,,0.00,weatherlink.com 1.10,2017-03-30 05:43:00,
2017-03-30 00:59:00,49.5,42.0,29.68,NNE,13,6.0,19.0,75,0.00,,,0.00,weatherlink.com 1.10,2017-03-30 05:59:00,
2017-03-30 01:13:00,49.3,42.0,29.67,WSW,248,0.0,14.0,75,0.00,,,0.00,weatherlink.com 1.10,2017-03-30 06:13:00,
2017-03-30 01:29:00,49.3,42.0,29.67,West,276,2.0,12.0,76,0.00,,,0.00,weatherlink.com 1.10,2017-03-30 06:29:00,
2017-03-30 01:43:00,49.2,42.0,29.67,West,267,9.0,13.0,75,0.00,,,0.00,weatherlink.com 1.10,2017-03-30 06:43:00,
2017-03-30 01:59:00,49.0,41.0,29.66,WSW,246,7.0,17.0,75,0.00,,,0.00,weatherlink.com 1.10,2017-03-30 06:59:00,
2017-03-30 02:14:00,48.9,41.0,29.66,SW,229,1.0,12.0,75,0.00,,,0.00,weatherlink.com 1.10,2017-03-30 07:14:00,
2017-03-30 02:29:00,49.0,42.0,29.66,WNW,297,6.0,13.0,76,0.00,,,0.00,weatherlink.com 1.10,2017-03-30 07:29:00,
2017-03-30 02:44:00,49.0,42.0,29.66,SSW,195,4.0,11.0,76,0.00,,,0.00,weatherlink.com 1.10,2017-03-30 07:44:00,
2017-03-30 02:59:00,48.9,42.0,29.66,West,266,8.0,11.0,76,0.00,,,0.00,weatherlink.com 1.10,2017-03-30 07:59:00,
2017-03-30 03:14:00,48.7,42.0,29.66,WNW,285,9.0,11.0,77,0.00,,,0.00,weatherlink.com 1.10,2017-03-30 08:14:00,
2017-03-30 03:29:00,48.7,42.0,29.65,WSW,240,2.0,10.0,77,0.00,,,0.00,weatherlink.com 1.10,2017-03-30 08:29:00,
2017-03-30 03:44:00,48.6,42.0,29.65,West,271,6.0,11.0,77,0.00,,,0.00,weatherlink.com 1.10,2017-03-30 08:44:00,
2017-03-30 03:59:00,48.4,42.0,29.65,West,276,7.0,13.0,77,0.00,,,0.00,weatherlink.com 1.10,2017-03-30 08:59:00,
2017-03-30 04:14:00,48.1,42.0,29.65,West,266,4.0,14.0,78,0.00,,,0.00,weatherlink.com 1.10,2017-03-30 09:14:00,
2017-03-30 04:29:00,47.8,42.0,29.65,NW,314,3.0,13.0,79,0.00,,,0.00,weatherlink.com 1.10,2017-03-30 09:29:00,
2017-03-30 04:45:00,47.5,42.0,29.65,WNW,297,3.0,14.0,80,0.00,,,0.00,weatherlink.com 1.10,2017-03-30 09:45:00,
2017-03-30 04:59:00,47.2,42.0,29.65,WNW,288,7.0,13.0,81,0.00,,,0.00,weatherlink.com 1.10,2017-03-30 09:59:00,
2017-03-30 05:14:00,47.2,42.0,29.65,WNW,300,2.0,12.0,81,0.00,,,0.00,weatherlink.com 1.10,2017-03-30 10:14:00,
2017-03-30 05:29:00,47.2,42.0,29.64,WNW,300,1.0,16.0,81,0.00,,,0.00,weatherlink.com 1.10,2017-03-30 10:29:00,
2017-03-30 05:44:00,47.3,42.0,29.64,West,266,3.0,9.0,81,0.00,,,0.00,weatherlink.com 1.10,2017-03-30 10:44:00,
2017-03-30 05:59:00,47.2,42.0,29.65,WSW,243,8.0,16.0,81,0.00,,,0.00,weatherlink.com 1.10,2017-03-30 10:59:00,
2017-03-30 06:14:00,46.5,42.0,29.66,West,265,0.0,17.0,84,0.00,,,0.00,weatherlink.com 1.10,2017-03-30 11:14:00,
2017-03-30 06:29:00,46.2,42.0,29.66,WNW,291,6.0,14.0,86,0.00,,,0.00,weatherlink.com 1.10,2017-03-30 11:29:00,
2017-03-30 06:44:00,46.2,42.0,29.66,West,266,2.0,12.0,86,0.00,,,0.00,weatherlink.com 1.10,2017-03-30 11:44:00,
2017-03-30 06:59:00,46.2,42.0,29.66,West,279,4.0,12.0,85,0.00,,,0.00,weatherlink.com 1.10,2017-03-30 11:59:00,
2017-03-30 07:14:00,46.3,42.0,29.66,WNW,285,2.0,11.0,85,0.00,,,0.00,weatherlink.com 1.10,2017-03-30 12:14:00,
2017-03-30 07:29:00,46.4,42.0,29.66,WNW,290,3.0,13.0,84,0.00,,,0.00,weatherlink.com 1.10,2017-03-30 12:29:00,
2017-03-30 07:45:00,46.5,42.0,29.67,WSW,257,9.0,9.0,83,0.00,,,0.00,weatherlink.com 1.10,2017-03-30 12:45:00,
2017-03-30 07:59:00,46.7,41.0,29.67,WNW,300,0.0,16.0,81,0.00,,,0.00,weatherlink.com 1.10,2017-03-30 12:59:00,
2017-03-30 08:15:00,46.6,41.0,29.67,West,281,4.0,16.0,82,0.00,,,0.00,weatherlink.com 1.10,2017-03-30 13:15:00,
2017-03-30 08:30:00,46.8,42.0,29.67,West,280,10.0,16.0,82,0.00,,,0.00,weatherlink.com 1.10,2017-03-30 13:30:00,
2017-03-30 08:46:00,46.9,41.0,29.67,NW,310,2.0,14.0,81,0.00,,,0.00,weatherlink.com 1.10,2017-03-30 13:46:00,
2017-03-30 09:00:00,47.3,42.0,29.67,WNW,283,1.0,7.0,81,0.00,,,0.00,weatherlink.com 1.10,2017-03-30 14:00:00,
2017-03-30 09:15:00,47.1,42.0,29.67,WNW,285,4.0,13.0,81,0.00,,,0.00,weatherlink.com 1.10,2017-03-30 14:15:00,
2017-03-30 09:30:00,47.5,42.0,29.68,NNW,331,4.0,12.0,80,0.00,,,0.00,weatherlink.com 1.10,2017-03-30 14:30:00,
2017-03-30 09:46:00,47.6,41.0,29.68,NW,309,4.0,20.0,79,0.00,,,0.00,weatherlink.com 1.10,2017-03-30 14:46:00,
2017-03-30 10:01:00,47.7,41.0,29.68,NW,319,2.0,16.0,78,0.00,,,0.00,weatherlink.com 1.10,2017-03-30 15:01:00,
2017-03-30 10:15:00,47.5,42.0,29.69,WNW,288,4.0,17.0,80,0.00,,,0.00,weatherlink.com 1.10,2017-03-30 15:15:00,
2017-03-30 10:31:00,47.5,41.0,29.70,West,277,6.0,14.0,79,0.00,,,0.00,weatherlink.com 1.10,2017-03-30 15:31:00,
2017-03-30 10:45:00,47.6,41.0,29.69,NW,320,1.0,12.0,79,0.00,,,0.00,weatherlink.com 1.10,2017-03-30 15:45:00,
2017-03-30 11:00:00,48.0,41.0,29.69,WNW,290,5.0,16.0,77,0.00,,,0.00,weatherlink.com 1.10,2017-03-30 16:00:00,
2017-03-30 11:15:00,48.6,42.0,29.68,NW,322,4.0,14.0,77,0.00,,,0.00,weatherlink.com 1.10,2017-03-30 16:15:00,
2017-03-30 11:30:00,48.8,42.0,29.68,West,272,4.0,19.0,76,0.00,,,0.00,weatherlink.com 1.10,2017-03-30 16:30:00,
2017-03-30 11:45:00,49.2,42.0,29.68,NW,305,13.0,19.0,76,0.00,,,0.00,weatherlink.com 1.10,2017-03-30 16:45:00,
2017-03-30 12:00:00,50.1,41.0,29.68,NW,321,5.0,22.0,72,0.00,,,0.00,weatherlink.com 1.10,2017-03-30 17:00:00,
2017-03-30 12:15:00,50.4,42.0,29.67,West,280,13.0,19.0,72,0.00,,,0.00,weatherlink.com 1.10,2017-03-30 17:15:00,
2017-03-30 12:30:00,50.8,42.0,29.68,NNE,32,2.0,21.0,72,0.00,,,0.00,weatherlink.com 1.10,2017-03-30 17:30:00,
2017-03-30 12:45:00,50.7,42.0,29.69,North,356,12.0,17.0,72,0.00,,,0.00,weatherlink.com 1.10,2017-03-30 17:45:00,
2017-03-30 13:00:00,51.0,42.0,29.70,West,269,9.0,15.0,72,0.00,,,0.00,weatherlink.com 1.10,2017-03-30 18:00:00,
2017-03-30 13:15:00,52.2,43.0,29.70,NE,34,6.0,13.0,70,0.00,,,0.00,weatherlink.com 1.10,2017-03-30 18:15:00,
2017-03-30 13:30:00,52.4,42.0,29.70,WSW,251,13.0,14.0,69,0.00,,,0.00,weatherlink.com 1.10,2017-03-30 18:30:00,
2017-03-30 13:45:00,52.1,43.0,29.70,NNW,342,2.0,12.0,71,0.00,,,0.00,weatherlink.com 1.10,2017-03-30 18:45:00,
2017-03-30 14:00:00,51.5,42.0,29.70,West,280,14.0,18.0,71,0.00,,,0.00,weatherlink.com 1.10,2017-03-30 19:00:00,
2017-03-30 14:15:00,51.0,42.0,29.71,NE,56,4.0,18.0,72,0.00,,,0.00,weatherlink.com 1.10,2017-03-30 19:15:00,
2017-03-30 14:30:00,51.4,43.0,29.71,NW,323,3.0,15.0,72,0.00,,,0.00,weatherlink.com 1.10,2017-03-30 19:30:00,
2017-03-30 14:45:00,51.9,43.0,29.71,NW,322,1.0,16.0,72,0.00,,,0.00,weatherlink.com 1.10,2017-03-30 19:45:00,
2017-03-30 15:00:00,52.1,43.0,29.71,NNW,332,4.0,12.0,71,0.00,,,0.00,weatherlink.com 1.10,2017-03-30 20:00:00,
2017-03-30 15:15:00,52.5,43.0,29.71,West,269,7.0,12.0,70,0.00,,,0.00,weatherlink.com 1.10,2017-03-30 20:15:00,
2017-03-30 15:30:00,52.8,43.0,29.71,West,278,7.0,12.0,69,0.00,,,0.00,weatherlink.com 1.10,2017-03-30 20:30:00,
2017-03-30 15:45:00,52.4,42.0,29.71,NNW,328,1.0,11.0,69,0.00,,,0.00,weatherlink.com 1.10,2017-03-30 20:45:00,
2017-03-30 16:00:00,52.2,43.0,29.70,NNW,347,4.0,11.0,70,0.00,,,0.00,weatherlink.com 1.10,2017-03-30 21:00:00,
2017-03-30 16:15:00,52.6,43.0,29.71,WNW,283,10.0,10.0,70,0.00,,,0.00,weatherlink.com 1.10,2017-03-30 21:15:00,
2017-03-30 16:46:00,53.0,43.0,29.71,NW,325,2.0,11.0,68,0.00,,,0.00,weatherlink.com 1.10,2017-03-30 21:46:00,
2017-03-30 17:01:00,53.6,43.0,29.71,WSW,250,3.0,9.0,68,0.00,,,0.00,weatherlink.com 1.10,2017-03-30 22:01:00,
2017-03-30 17:16:00,54.1,43.0,29.72,NNW,334,1.0,12.0,67,0.00,,,0.00,weatherlink.com 1.10,2017-03-30 22:16:00,
2017-03-30 17:31:00,53.6,43.0,29.72,NNE,24,7.0,12.0,67,0.00,,,0.00,weatherlink.com 1.10,2017-03-30 22:31:00,
2017-03-30 17:46:00,53.4,43.0,29.73,NW,326,3.0,7.0,68,0.00,,,0.00,weatherlink.com 1.10,2017-03-30 22:46:00,
2017-03-30 18:01:00,53.2,43.0,29.73,WNW,293,1.0,7.0,69,0.00,,,0.00,weatherlink.com 1.10,2017-03-30 23:01:00,
2017-03-30 18:16:00,53.0,43.0,29.73,NW,321,3.0,10.0,69,0.00,,,0.00,weatherlink.com 1.10,2017-03-30 23:16:00,
2017-03-30 18:31:00,52.9,43.0,29.73,NNW,333,1.0,7.0,70,0.00,,,0.00,weatherlink.com 1.10,2017-03-30 23:31:00,
2017-03-30 18:46:00,52.7,43.0,29.74,NW,323,2.0,7.0,70,0.00,,,0.00,weatherlink.com 1.10,2017-03-30 23:46:00,
2017-03-30 19:01:00,52.6,43.0,29.74,NNW,327,0.0,3.0,70,0.00,,,0.00,weatherlink.com 1.10,2017-03-31 00:01:00,
2017-03-30 19:16:00,52.5,43.0,29.75,NW,315,0.0,7.0,70,0.00,,,0.00,weatherlink.com 1.10,2017-03-31 00:16:00,
2017-03-30 19:31:00,52.3,43.0,29.75,NNW,345,2.0,7.0,71,0.00,,,0.00,weatherlink.com 1.10,2017-03-31 00:31:00,
2017-03-30 19:46:00,52.0,43.0,29.75,NNE,16,2.0,9.0,71,0.00,,,0.00,weatherlink.com 1.10,2017-03-31 00:46:00,